| time (UTC) | temp C | wind direction | speed KPH | gust KPH | rain 1hr cm | rain 24hr cm | rain mn cm | humidity % | barometer mb |
| 20260506025716 | 2 | 303 | 1.6 | 3.2 | 0.00 | 0.00 | 0.00 | 60 | 1015.2 |
| 20260506025212 | 3 | 293 | 1.6 | 3.2 | 0.00 | 0.00 | 0.00 | 60 | 1015.0 |
| 20260506024709 | 3 | 331 | 4.8 | 6.4 | 0.00 | 0.00 | 0.00 | 59 | 1015.3 |
| 20260506024205 | 3 | 299 | 1.6 | 3.2 | 0.00 | 0.00 | 0.00 | 59 | 1014.9 |
| 20260506023702 | 3 | 270 | 0.0 | 4.8 | 0.00 | 0.00 | 0.00 | 59 | 1015.1 |
| 20260506023200 | 3 | 42 | 3.2 | 9.7 | 0.00 | 0.00 | 0.00 | 57 | 1014.9 |
| 20260506022656 | 3 | 267 | 6.4 | 6.4 | 0.00 | 0.00 | 0.00 | 56 | 1014.6 |
| 20260506022154 | 3 | 341 | 6.4 | 9.7 | 0.00 | 0.00 | 0.00 | 57 | 1014.7 |
| 20260506021652 | 3 | 305 | 3.2 | 6.4 | 0.00 | 0.00 | 0.00 | 56 | 1014.5 |
| 20260506021148 | 3 | 315 | 3.2 | 6.4 | 0.00 | 0.00 | 0.00 | 57 | 1014.5 |
| 20260506020640 | 3 | 354 | 4.8 | 9.7 | 0.00 | 0.00 | 0.00 | 56 | 1014.4 |
| 20260506020137 | 3 | 312 | 6.4 | 9.7 | 0.00 | 0.00 | 0.00 | 55 | 1014.5 |
| 20260506015635 | 3 | 333 | 3.2 | 9.7 | 0.00 | 0.00 | 0.00 | 55 | 1014.5 |
| 20260506015131 | 4 | 356 | 8.0 | 12.9 | 0.00 | 0.00 | 0.00 | 54 | 1014.3 |
| 20260506014629 | 4 | 11 | 3.2 | 12.9 | 0.00 | 0.00 | 0.00 | 54 | 1014.2 |
| 20260506014124 | 4 | 11 | 4.8 | 11.3 | 0.00 | 0.00 | 0.00 | 54 | 1014.3 |
| 20260506013623 | 4 | 5 | 4.8 | 16.1 | 0.00 | 0.00 | 0.00 | 54 | 1014.2 |
| 20260506013119 | 4 | 313 | 6.4 | 12.9 | 0.00 | 0.00 | 0.00 | 53 | 1014.1 |
| 20260506012615 | 4 | 344 | 16.1 | 22.5 | 0.00 | 0.00 | 0.00 | 51 | 1014.2 |
| 20260506012111 | 4 | 313 | 12.9 | 22.5 | 0.00 | 0.00 | 0.00 | 52 | 1014.1 |
| 20260506011610 | 5 | 347 | 3.2 | 16.1 | 0.00 | 0.00 | 0.00 | 53 | 1014.2 |
| 20260506011106 | 5 | 313 | 8.0 | 20.9 | 0.00 | 0.00 | 0.00 | 52 | 1014.2 |
| 20260506010600 | 5 | 319 | 9.7 | 17.7 | 0.00 | 0.00 | 0.00 | 52 | 1014.1 |
| 20260506010056 | 5 | 338 | 14.5 | 24.1 | 0.00 | 0.00 | 0.00 | 51 | 1014.0 |
| 20260506005553 | 5 | 33 | 6.4 | 11.3 | 0.00 | 0.00 | 0.00 | 55 | 1014.0 |
| 20260506005049 | 5 | 342 | 9.7 | 14.5 | 0.00 | 0.00 | 0.00 | 53 | 1014.0 |
| 20260506004547 | 5 | 8 | 9.7 | 11.3 | 0.00 | 0.00 | 0.00 | 54 | 1013.8 |
| 20260506004043 | 5 | 310 | 6.4 | 22.5 | 0.00 | 0.00 | 0.00 | 53 | 1013.9 |
| 20260506003540 | 5 | 356 | 6.4 | 16.1 | 0.00 | 0.00 | 0.00 | 55 | 1013.7 |
| 20260506003036 | 5 | 294 | 9.7 | 14.5 | 0.00 | 0.00 | 0.00 | 53 | 1013.9 |
| 20260506002532 | 5 | 357 | 9.7 | 24.1 | 0.00 | 0.00 | 0.00 | 53 | 1013.8 |
| 20260506002028 | 5 | 284 | 6.4 | 9.7 | 0.00 | 0.00 | 0.00 | 54 | 1013.7 |
| 20260506001524 | 5 | 311 | 12.9 | 16.1 | 0.00 | 0.00 | 0.00 | 52 | 1013.9 |
| 20260506001022 | 5 | 260 | 8.0 | 17.7 | 0.00 | 0.00 | 0.00 | 54 | 1013.6 |
| 20260506000519 | 5 | 270 | 12.9 | 16.1 | 0.00 | 0.00 | 0.00 | 54 | 1013.7 |
| 20260506000017 | 5 | 347 | 9.7 | 12.9 | 0.00 | 0.00 | 0.00 | 55 | 1013.7 |
| 20260505235515 | 5 | 67 | 1.6 | 9.7 | 0.00 | 0.00 | 0.00 | 55 | 1013.5 |
| 20260505235011 | 5 | 296 | 9.7 | 12.9 | 0.00 | 0.00 | 0.00 | 54 | 1013.8 |
| 20260505234508 | 5 | 357 | 9.7 | 17.7 | 0.00 | 0.00 | 0.00 | 54 | 1013.7 |
| 20260505234005 | 5 | 279 | 9.7 | 14.5 | 0.00 | 0.00 | 0.00 | 55 | 1013.9 |
| 20260505233502 | 5 | 310 | 9.7 | 12.9 | 0.00 | 0.00 | 0.00 | 55 | 1013.5 |
| 20260505232959 | 5 | 0 | 6.4 | 12.9 | 0.00 | 0.00 | 0.00 | 55 | 1013.6 |
| 20260505232457 | 5 | 305 | 9.7 | 12.9 | 0.00 | 0.00 | 0.00 | 54 | 1013.8 |
| 20260505231954 | 5 | 296 | 11.3 | 14.5 | 0.00 | 0.00 | 0.00 | 53 | 1014.0 |
| 20260505231451 | 5 | 296 | 11.3 | 27.4 | 0.00 | 0.00 | 0.00 | 53 | 1014.0 |
| 20260505230949 | 5 | 305 | 14.5 | 17.7 | 0.00 | 0.00 | 0.00 | 54 | 1013.8 |
| 20260505230441 | 5 | 331 | 9.7 | 20.9 | 0.00 | 0.00 | 0.00 | 53 | 1013.7 |
| 20260505225937 | 5 | 282 | 14.5 | 24.1 | 0.00 | 0.00 | 0.00 | 54 | 1013.9 |
| 20260505225435 | 5 | 307 | 14.5 | 16.1 | 0.00 | 0.00 | 0.00 | 54 | 1013.7 |
| 20260505224930 | 5 | 288 | 14.5 | 20.9 | 0.00 | 0.00 | 0.00 | 55 | 1013.7 |
| 20260505224428 | 5 | 288 | 14.5 | 20.9 | 0.00 | 0.00 | 0.00 | 55 | 1013.6 |
| 20260505223925 | 6 | 271 | 9.7 | 11.3 | 0.00 | 0.00 | 0.00 | 53 | 1013.8 |
| 20260505223422 | 5 | 305 | 8.0 | 17.7 | 0.00 | 0.00 | 0.00 | 54 | 1013.9 |
| 20260505222918 | 6 | 269 | 9.7 | 17.7 | 0.00 | 0.00 | 0.00 | 52 | 1013.8 |
| 20260505222414 | 5 | 2 | 8.0 | 9.7 | 0.00 | 0.00 | 0.00 | 55 | 1013.6 |
| 20260505221910 | 5 | 308 | 12.9 | 17.7 | 0.00 | 0.00 | 0.00 | 55 | 1013.7 |
| 20260505221408 | 5 | 329 | 11.3 | 22.5 | 0.00 | 0.00 | 0.00 | 55 | 1013.5 |
| 20260505220905 | 5 | 326 | 11.3 | 16.1 | 0.00 | 0.00 | 0.00 | 56 | 1013.4 |
| 20260505220402 | 5 | 249 | 6.4 | 11.3 | 0.00 | 0.00 | 0.00 | 55 | 1013.5 |
| 20260505215859 | 5 | 196 | 6.4 | 12.9 | 0.00 | 0.00 | 0.00 | 56 | 1013.5 |
| 20260505215357 | 5 | 301 | 14.5 | 16.1 | 0.00 | 0.00 | 0.00 | 55 | 1013.8 |
| 20260505214855 | 5 | 275 | 11.3 | 12.9 | 0.00 | 0.00 | 0.00 | 57 | 1013.5 |
| 20260505214352 | 6 | 290 | 9.7 | 17.7 | 0.00 | 0.00 | 0.00 | 54 | 1013.5 |
| 20260505213849 | 5 | 258 | 9.7 | 17.7 | 0.00 | 0.00 | 0.00 | 53 | 1013.4 |
| 20260505213347 | 5 | 284 | 8.0 | 12.9 | 0.00 | 0.00 | 0.00 | 54 | 1013.4 |
| 20260505212843 | 5 | 298 | 6.4 | 12.9 | 0.00 | 0.00 | 0.00 | 54 | 1013.6 |
| 20260505212340 | 6 | 213 | 9.7 | 11.3 | 0.00 | 0.00 | 0.00 | 54 | 1013.3 |
| 20260505211836 | 6 | 283 | 6.4 | 9.7 | 0.00 | 0.00 | 0.00 | 51 | 1013.4 |
| 20260505211334 | 6 | 336 | 9.7 | 11.3 | 0.00 | 0.00 | 0.00 | 52 | 1013.6 |
| 20260505210830 | 5 | 265 | 16.1 | 17.7 | 0.00 | 0.00 | 0.00 | 54 | 1013.5 |
| 20260505210327 | 5 | 342 | 8.0 | 12.9 | 0.00 | 0.00 | 0.00 | 52 | 1013.2 |
| 20260505205824 | 5 | 276 | 12.9 | 16.1 | 0.00 | 0.00 | 0.00 | 51 | 1013.4 |
| 20260505205322 | 6 | 297 | 6.4 | 22.5 | 0.00 | 0.00 | 0.00 | 51 | 1013.4 |
| 20260505204819 | 6 | 302 | 6.4 | 14.5 | 0.00 | 0.00 | 0.00 | 51 | 1013.4 |
| 20260505204317 | 6 | 247 | 14.5 | 17.7 | 0.00 | 0.00 | 0.00 | 50 | 1013.3 |
| 20260505203814 | 6 | 315 | 14.5 | 17.7 | 0.00 | 0.00 | 0.00 | 50 | 1013.2 |
| 20260505203310 | 5 | 248 | 6.4 | 9.7 | 0.00 | 0.00 | 0.00 | 52 | 1013.4 |
| 20260505202807 | 5 | 263 | 11.3 | 14.5 | 0.00 | 0.00 | 0.00 | 51 | 1013.2 |
| 20260505202306 | 6 | 4 | 9.7 | 16.1 | 0.00 | 0.00 | 0.00 | 52 | 1013.4 |
| 20260505201800 | 6 | 341 | 3.2 | 16.1 | 0.00 | 0.00 | 0.00 | 54 | 1013.6 |
| 20260505201257 | 6 | 342 | 8.0 | 11.3 | 0.00 | 0.00 | 0.00 | 54 | 1013.5 |
| 20260505200755 | 6 | 315 | 9.7 | 16.1 | 0.00 | 0.00 | 0.00 | 51 | 1013.5 |
| 20260505200252 | 6 | 297 | 16.1 | 17.7 | 0.00 | 0.00 | 0.00 | 52 | 1013.4 |
| 20260505195747 | 6 | 274 | 14.5 | 20.9 | 0.00 | 0.00 | 0.00 | 52 | 1013.3 |
| 20260505195245 | 6 | 286 | 14.5 | 20.9 | 0.00 | 0.00 | 0.00 | 51 | 1013.1 |
| 20260505194742 | 6 | 292 | 12.9 | 16.1 | 0.00 | 0.00 | 0.00 | 52 | 1013.2 |
| 20260505194239 | 6 | 292 | 12.9 | 16.1 | 0.00 | 0.00 | 0.00 | 52 | 1013.3 |
| 20260505193734 | 5 | 309 | 11.3 | 14.5 | 0.00 | 0.00 | 0.00 | 53 | 1013.3 |
| 20260505193232 | 5 | 309 | 11.3 | 14.5 | 0.00 | 0.00 | 0.00 | 53 | 1013.2 |
| 20260505192730 | 5 | 309 | 11.3 | 14.5 | 0.00 | 0.00 | 0.00 | 53 | 1013.3 |
| 20260505192228 | 6 | 301 | 11.3 | 14.5 | 0.00 | 0.00 | 0.00 | 52 | 1013.1 |
| 20260505191726 | 6 | 263 | 4.8 | 12.9 | 0.00 | 0.00 | 0.00 | 53 | 1013.1 |
| 20260505191224 | 6 | 357 | 9.7 | 12.9 | 0.00 | 0.00 | 0.00 | 52 | 1013.2 |
| 20260505190720 | 5 | 312 | 8.0 | 14.5 | 0.00 | 0.00 | 0.00 | 56 | 1013.2 |
| 20260505190220 | 6 | 336 | 14.5 | 17.7 | 0.00 | 0.00 | 0.00 | 53 | 1013.2 |
| 20260505185716 | 6 | 289 | 9.7 | 12.9 | 0.00 | 0.00 | 0.00 | 54 | 1013.2 |
| 20260505185213 | 6 | 319 | 11.3 | 24.1 | 0.00 | 0.00 | 0.00 | 53 | 1012.9 |
| 20260505184709 | 6 | 35 | 3.2 | 17.7 | 0.00 | 0.00 | 0.00 | 54 | 1012.9 |
| 20260505184207 | 6 | 294 | 16.1 | 25.7 | 0.00 | 0.00 | 0.00 | 50 | 1012.9 |
| 20260505183703 | 6 | 300 | 12.9 | 17.7 | 0.00 | 0.00 | 0.00 | 51 | 1012.9 |
| 20260505183201 | 6 | 289 | 9.7 | 11.3 | 0.00 | 0.00 | 0.00 | 53 | 1012.7 |
| 20260505182656 | 6 | 350 | 9.7 | 16.1 | 0.00 | 0.00 | 0.00 | 53 | 1013.0 |
| 20260505182154 | 6 | 289 | 9.7 | 14.5 | 0.00 | 0.00 | 0.00 | 53 | 1012.7 |
| 20260505181650 | 6 | 302 | 9.7 | 14.5 | 0.00 | 0.00 | 0.00 | 52 | 1012.7 |
| 20260505181148 | 6 | 304 | 8.0 | 14.5 | 0.00 | 0.00 | 0.00 | 52 | 1012.7 |
| 20260505180644 | 6 | 298 | 12.9 | 22.5 | 0.00 | 0.00 | 0.00 | 52 | 1012.7 |
| 20260505180141 | 6 | 241 | 11.3 | 16.1 | 0.00 | 0.00 | 0.00 | 50 | 1012.4 |
| 20260505175637 | 6 | 290 | 8.0 | 16.1 | 0.00 | 0.00 | 0.00 | 51 | 1012.2 |
| 20260505175134 | 6 | 260 | 11.3 | 25.7 | 0.00 | 0.00 | 0.00 | 52 | 1012.7 |
| 20260505174631 | 6 | 290 | 17.7 | 25.7 | 0.00 | 0.00 | 0.00 | 49 | 1012.5 |
| 20260505174126 | 6 | 277 | 11.3 | 20.9 | 0.00 | 0.00 | 0.00 | 51 | 1012.2 |
| 20260505173623 | 6 | 278 | 8.0 | 16.1 | 0.00 | 0.00 | 0.00 | 52 | 1012.4 |
| 20260505173114 | 6 | 19 | 8.0 | 17.7 | 0.00 | 0.00 | 0.00 | 52 | 1012.2 |
| 20260505172612 | 6 | 304 | 14.5 | 24.1 | 0.00 | 0.00 | 0.00 | 52 | 1012.5 |
| 20260505172108 | 6 | 357 | 9.7 | 17.7 | 0.00 | 0.00 | 0.00 | 50 | 1012.4 |
| 20260505171603 | 6 | 294 | 6.4 | 17.7 | 0.00 | 0.00 | 0.00 | 49 | 1012.4 |
| 20260505171101 | 6 | 232 | 12.9 | 17.7 | 0.00 | 0.00 | 0.00 | 47 | 1012.1 |
| 20260505170557 | 6 | 329 | 8.0 | 14.5 | 0.00 | 0.00 | 0.00 | 50 | 1012.0 |
| 20260505170054 | 6 | 336 | 14.5 | 22.5 | 0.00 | 0.00 | 0.00 | 50 | 1012.2 |
| 20260505165549 | 7 | 297 | 9.7 | 20.9 | 0.00 | 0.00 | 0.00 | 51 | 1012.4 |
| 20260505165045 | 5 | 307 | 4.8 | 14.5 | 0.00 | 0.00 | 0.00 | 55 | 1012.1 |
| 20260505164541 | 5 | 345 | 11.3 | 16.1 | 0.00 | 0.00 | 0.00 | 52 | 1012.4 |
| 20260505164038 | 5 | 292 | 8.0 | 14.5 | 0.00 | 0.00 | 0.00 | 51 | 1012.2 |
| 20260505163537 | 5 | 326 | 14.5 | 16.1 | 0.00 | 0.00 | 0.00 | 51 | 1012.4 |
| 20260505163033 | 5 | 221 | 8.0 | 14.5 | 0.00 | 0.00 | 0.00 | 53 | 1012.4 |
| 20260505162526 | 5 | 345 | 8.0 | 14.5 | 0.00 | 0.00 | 0.00 | 53 | 1012.1 |
| 20260505162024 | 6 | 335 | 4.8 | 14.5 | 0.00 | 0.00 | 0.00 | 55 | 1012.1 |
| 20260505161520 | 5 | 263 | 8.0 | 22.5 | 0.00 | 0.00 | 0.00 | 51 | 1012.2 |
| 20260505161017 | 6 | 277 | 14.5 | 22.5 | 0.00 | 0.00 | 0.00 | 50 | 1012.0 |
| 20260505160515 | 6 | 284 | 12.9 | 20.9 | 0.00 | 0.00 | 0.00 | 49 | 1012.2 |
| 20260505152951 | 5 | 297 | 8.0 | 14.5 | 0.00 | 0.00 | 0.00 | 55 | 1011.9 |
| 20260505152449 | 6 | 310 | 6.4 | 16.1 | 0.00 | 0.00 | 0.00 | 55 | 1011.7 |
| 20260505151944 | 6 | 305 | 11.3 | 12.9 | 0.00 | 0.00 | 0.00 | 58 | 1012.0 |
| 20260505151440 | 6 | 228 | 9.7 | 20.9 | 0.00 | 0.00 | 0.00 | 57 | 1011.8 |
| 20260505150937 | 6 | 309 | 11.3 | 16.1 | 0.00 | 0.00 | 0.00 | 57 | 1011.9 |
| 20260505150434 | 6 | 256 | 14.5 | 24.1 | 0.00 | 0.00 | 0.00 | 55 | 1011.9 |
| 20260505140404 | 4 | 306 | 4.8 | 9.7 | 0.00 | 0.00 | 0.00 | 60 | 1011.6 |
| 20260505124817 | 2 | 255 | 6.4 | 16.1 | 0.00 | 0.00 | 0.00 | 64 | 1011.1 |
| 20260505124314 | 2 | 239 | 8.0 | 11.3 | 0.00 | 0.00 | 0.00 | 66 | 1011.2 |
| 20260505123810 | 2 | 265 | 6.4 | 9.7 | 0.00 | 0.00 | 0.00 | 66 | 1010.9 |
| 20260505123307 | 2 | 272 | 6.4 | 9.7 | 0.00 | 0.00 | 0.00 | 67 | 1011.0 |
| 20260505122803 | 2 | 293 | 6.4 | 6.4 | 0.00 | 0.00 | 0.00 | 67 | 1010.8 |
| 20260505122301 | 2 | 308 | 4.8 | 9.7 | 0.00 | 0.00 | 0.00 | 67 | 1010.9 |
| 20260505121757 | 1 | 249 | 1.6 | 3.2 | 0.00 | 0.00 | 0.00 | 67 | 1010.9 |
| 20260505121254 | 1 | 261 | 3.2 | 4.8 | 0.00 | 0.00 | 0.00 | 66 | 1010.6 |
| 20260505120750 | 1 | 302 | 6.4 | 9.7 | 0.00 | 0.00 | 0.00 | 67 | 1010.7 |
| 20260505120247 | 1 | 239 | 0.0 | 1.6 | 0.00 | 0.00 | 0.00 | 67 | 1010.6 |
| 20260505115745 | 1 | 314 | 3.2 | 6.4 | 0.00 | 0.00 | 0.00 | 67 | 1010.6 |
| 20260505115243 | 1 | 332 | 3.2 | 4.8 | 0.00 | 0.00 | 0.00 | 68 | 1010.5 |
| 20260505114740 | 1 | 246 | 1.6 | 3.2 | 0.00 | 0.00 | 0.00 | 67 | 1010.2 |
| 20260505114236 | 0 | 246 | 1.6 | 4.8 | 0.00 | 0.00 | 0.00 | 68 | 1010.2 |
| 20260505113733 | 0 | 303 | 3.2 | 4.8 | 0.00 | 0.00 | 0.00 | 70 | 1010.3 |
| 20260505113230 | 0 | 240 | 0.0 | 1.6 | 0.00 | 0.00 | 0.00 | 72 | 1010.1 |
| 20260505112726 | 0 | 282 | 3.2 | 3.2 | 0.00 | 0.00 | 0.00 | 73 | 1010.4 |
| 20260505112224 | 0 | 262 | 1.6 | 4.8 | 0.00 | 0.00 | 0.00 | 74 | 1010.1 |
| 20260505111723 | 0 | 223 | 0.0 | 3.2 | 0.00 | 0.00 | 0.00 | 74 | 1010.3 |
| 20260505111219 | 0 | 247 | 1.6 | 3.2 | 0.00 | 0.00 | 0.00 | 75 | 1010.2 |
| 20260505110715 | 0 | 229 | 1.6 | 4.8 | 0.00 | 0.00 | 0.00 | 75 | 1010.1 |
| 20260505110213 | 0 | 239 | 3.2 | 4.8 | 0.00 | 0.00 | 0.00 | 74 | 1010.2 |
| 20260505102148 | 0 | 275 | 0.0 | 1.6 | 0.00 | 0.00 | 0.00 | 71 | 1010.0 |
| 20260505101647 | 1 | 281 | 1.6 | 6.4 | 0.00 | 0.00 | 0.00 | 71 | 1009.9 |
| 20260505101143 | 0 | 307 | 3.2 | 3.2 | 0.00 | 0.00 | 0.00 | 72 | 1009.7 |
| 20260505100639 | 1 | 272 | 0.0 | 4.8 | 0.00 | 0.00 | 0.00 | 70 | 1010.1 |
| 20260505100136 | 1 | 295 | 1.6 | 1.6 | 0.00 | 0.00 | 0.00 | 71 | 1009.9 |
| 20260505095632 | 1 | 341 | 4.8 | 4.8 | 0.00 | 0.00 | 0.00 | 70 | 1010.1 |
| 20260505095130 | 1 | 266 | 1.6 | 6.4 | 0.00 | 0.00 | 0.00 | 69 | 1010.2 |
| 20260505094626 | 1 | 29 | 1.6 | 4.8 | 0.00 | 0.00 | 0.00 | 69 | 1010.1 |
| 20260505094122 | 1 | 22 | 1.6 | 4.8 | 0.00 | 0.00 | 0.00 | 69 | 1010.1 |
| 20260505093618 | 1 | 285 | 3.2 | 3.2 | 0.00 | 0.00 | 0.00 | 69 | 1010.0 |
| 20260505093116 | 1 | 330 | 3.2 | 9.7 | 0.00 | 0.00 | 0.00 | 69 | 1010.1 |
| 20260505092613 | 1 | 323 | 1.6 | 9.7 | 0.00 | 0.00 | 0.00 | 69 | 1010.0 |
| 20260505092112 | 1 | 326 | 3.2 | 3.2 | 0.00 | 0.00 | 0.00 | 68 | 1009.9 |
| 20260505091608 | 2 | 18 | 4.8 | 9.7 | 0.00 | 0.00 | 0.00 | 67 | 1010.1 |
| 20260505091106 | 2 | 357 | 4.8 | 9.7 | 0.00 | 0.00 | 0.00 | 67 | 1010.0 |
| 20260505090604 | 2 | 348 | 8.0 | 12.9 | 0.00 | 0.00 | 0.00 | 66 | 1010.0 |
| 20260505085559 | 2 | 9 | 4.8 | 11.3 | 0.00 | 0.00 | 0.00 | 70 | 1010.0 |
| 20260505085057 | 2 | 13 | 1.6 | 9.7 | 0.00 | 0.00 | 0.00 | 72 | 1009.7 |
| 20260505084555 | 2 | 30 | 3.2 | 9.7 | 0.00 | 0.00 | 0.00 | 73 | 1009.9 |
| 20260505084053 | 2 | 76 | 3.2 | 11.3 | 0.00 | 0.00 | 0.00 | 73 | 1009.7 |
| 20260505083549 | 2 | 342 | 3.2 | 4.8 | 0.00 | 0.00 | 0.00 | 74 | 1009.7 |
| 20260505083046 | 2 | 29 | 1.6 | 6.4 | 0.00 | 0.00 | 0.00 | 75 | 1009.5 |
| 20260505082542 | 2 | 5 | 6.4 | 9.7 | 0.00 | 0.00 | 0.00 | 76 | 1009.6 |
| 20260505082039 | 2 | 305 | 0.0 | 4.8 | 0.00 | 0.00 | 0.00 | 77 | 1009.6 |
| 20260505081535 | 2 | 313 | 3.2 | 4.8 | 0.00 | 0.00 | 0.00 | 76 | 1009.4 |
| 20260505081032 | 2 | 314 | 8.0 | 11.3 | 0.00 | 0.00 | 0.00 | 75 | 1009.4 |
| 20260505080529 | 2 | 314 | 6.4 | 9.7 | 0.00 | 0.00 | 0.00 | 74 | 1009.5 |
| 20260505080026 | 2 | 324 | 8.0 | 11.3 | 0.00 | 0.00 | 0.00 | 73 | 1009.6 |
| 20260505075521 | 3 | 331 | 4.8 | 12.9 | 0.00 | 0.00 | 0.00 | 73 | 1009.6 |
| 20260505075018 | 3 | 73 | 1.6 | 11.3 | 0.00 | 0.00 | 0.00 | 73 | 1009.5 |
| 20260505074516 | 3 | 359 | 6.4 | 11.3 | 0.00 | 0.00 | 0.00 | 72 | 1009.4 |
| 20260505074013 | 3 | 335 | 3.2 | 3.2 | 0.00 | 0.00 | 0.00 | 72 | 1009.4 |
| 20260505073510 | 3 | 53 | 6.4 | 11.3 | 0.00 | 0.00 | 0.00 | 72 | 1009.4 |
| 20260505073008 | 3 | 343 | 4.8 | 6.4 | 0.00 | 0.00 | 0.00 | 71 | 1009.4 |
| 20260505072504 | 3 | 312 | 8.0 | 11.3 | 0.00 | 0.00 | 0.00 | 71 | 1009.5 |
| 20260505072000 | 3 | 5 | 8.0 | 11.3 | 0.00 | 0.00 | 0.00 | 70 | 1009.4 |
| 20260505071455 | 3 | 359 | 3.2 | 6.4 | 0.00 | 0.00 | 0.00 | 70 | 1009.4 |
| 20260505070954 | 3 | 358 | 1.6 | 3.2 | 0.00 | 0.00 | 0.00 | 68 | 1009.2 |
| 20260505070450 | 3 | 336 | 6.4 | 11.3 | 0.00 | 0.00 | 0.00 | 67 | 1009.4 |
| 20260505065946 | 4 | 10 | 6.4 | 6.4 | 0.00 | 0.00 | 0.00 | 67 | 1009.2 |
| 20260505065443 | 4 | 334 | 6.4 | 12.9 | 0.00 | 0.00 | 0.00 | 66 | 1009.3 |
| 20260505064939 | 4 | 355 | 6.4 | 9.7 | 0.00 | 0.00 | 0.00 | 67 | 1009.3 |
| 20260505064436 | 4 | 341 | 4.8 | 12.9 | 0.00 | 0.00 | 0.00 | 66 | 1009.2 |
| 20260505063935 | 4 | 316 | 4.8 | 6.4 | 0.00 | 0.00 | 0.00 | 67 | 1009.2 |
| 20260505063431 | 4 | 256 | 6.4 | 12.9 | 0.00 | 0.00 | 0.00 | 66 | 1009.1 |
| 20260505062928 | 4 | 332 | 4.8 | 9.7 | 0.00 | 0.00 | 0.00 | 67 | 1009.1 |
| 20260505062425 | 4 | 268 | 1.6 | 3.2 | 0.00 | 0.00 | 0.00 | 68 | 1009.3 |
| 20260505061921 | 4 | 302 | 4.8 | 4.8 | 0.00 | 0.00 | 0.00 | 68 | 1009.1 |
| 20260505061420 | 4 | 287 | 1.6 | 6.4 | 0.00 | 0.00 | 0.00 | 68 | 1009.3 |
| 20260505060917 | 4 | 276 | 3.2 | 4.8 | 0.00 | 0.00 | 0.00 | 69 | 1009.0 |
| 20260505060414 | 4 | 255 | 3.2 | 11.3 | 0.00 | 0.00 | 0.00 | 68 | 1009.0 |
| 20260505055910 | 4 | 284 | 1.6 | 11.3 | 0.00 | 0.00 | 0.00 | 68 | 1008.9 |
| 20260505055406 | 4 | 324 | 4.8 | 11.3 | 0.00 | 0.00 | 0.00 | 68 | 1008.9 |
| 20260505054903 | 4 | 280 | 8.0 | 9.7 | 0.00 | 0.00 | 0.00 | 69 | 1008.9 |
| 20260505054400 | 4 | 342 | 3.2 | 9.7 | 0.00 | 0.00 | 0.00 | 70 | 1008.9 |
| 20260505053859 | 4 | 259 | 3.2 | 4.8 | 0.00 | 0.00 | 0.00 | 71 | 1008.9 |
| 20260505053355 | 3 | 315 | 8.0 | 9.7 | 0.00 | 0.00 | 0.00 | 71 | 1009.0 |
| 20260505052852 | 3 | 293 | 3.2 | 3.2 | 0.00 | 0.00 | 0.00 | 71 | 1009.0 |
| 20260505052349 | 3 | 244 | 1.6 | 4.8 | 0.00 | 0.00 | 0.00 | 72 | 1008.9 |
| 20260505051846 | 3 | 279 | 3.2 | 4.8 | 0.00 | 0.00 | 0.00 | 71 | 1008.9 |
| 20260505051343 | 3 | 245 | 3.2 | 3.2 | 0.00 | 0.00 | 0.00 | 71 | 1008.8 |
| 20260505050841 | 3 | 232 | 1.6 | 3.2 | 0.00 | 0.00 | 0.00 | 71 | 1008.6 |
| 20260505050340 | 3 | 243 | 1.6 | 4.8 | 0.00 | 0.00 | 0.00 | 70 | 1008.7 |
| 20260505041307 | 4 | 332 | 4.8 | 9.7 | 0.00 | 0.00 | 0.00 | 68 | 1008.7 |
| 20260505040804 | 4 | 282 | 0.0 | 3.2 | 0.00 | 0.00 | 0.00 | 68 | 1008.6 |
| 20260505040302 | 5 | 2 | 1.6 | 4.8 | 0.00 | 0.00 | 0.00 | 67 | 1008.6 |
| 20260505035758 | 5 | 337 | 4.8 | 11.3 | 0.00 | 0.00 | 0.00 | 65 | 1008.4 |
| 20260505035254 | 5 | 320 | 4.8 | 6.4 | 0.00 | 0.00 | 0.00 | 65 | 1008.8 |
| 20260505034751 | 5 | 342 | 4.8 | 11.3 | 0.00 | 0.00 | 0.00 | 64 | 1008.5 |
| 20260505034248 | 5 | 9 | 3.2 | 12.9 | 0.00 | 0.00 | 0.00 | 64 | 1008.5 |
| 20260505033744 | 5 | 333 | 6.4 | 14.5 | 0.00 | 0.00 | 0.00 | 63 | 1008.5 |
| 20260505033242 | 5 | 358 | 8.0 | 11.3 | 0.00 | 0.00 | 0.00 | 62 | 1008.6 |
| 20260505032740 | 5 | 18 | 6.4 | 11.3 | 0.00 | 0.00 | 0.00 | 61 | 1008.6 |
| 20260505032236 | 5 | 359 | 6.4 | 12.9 | 0.00 | 0.00 | 0.00 | 57 | 1008.5 |
| 20260505031733 | 6 | 23 | 3.2 | 6.4 | 0.00 | 0.00 | 0.00 | 55 | 1008.4 |
| 20260505031229 | 6 | 314 | 4.8 | 6.4 | 0.00 | 0.00 | 0.00 | 53 | 1008.1 |
| 20260505030726 | 6 | 286 | 6.4 | 9.7 | 0.00 | 0.00 | 0.00 | 53 | 1008.3 |
| 20260505030222 | 6 | 293 | 3.2 | 14.5 | 0.00 | 0.00 | 0.00 | 53 | 1008.2 |